FW8448 Weather Reports


Display with metric or nautical units.
time (UTC)temp
F
wind
direction
speed
MPH
gust
MPH
rain 1hr
in
rain 24hr
in
rain mn
in
humidity
%
barometer
mb
20260831230107 87 231 2.0 5.0 0.00 0.00 0.00 74 1017.0
20260831224605 87 215 2.0 6.0 0.00 0.00 0.00 73 1017.0
20260831223105 88 209 3.0 11.0 0.00 0.00 0.00 70 1016.7
20260831221609 90 225 2.0 9.0 0.00 0.00 0.00 68 1017.1
20260831220057 90 0 1.0 7.0 0.00 0.00 0.00 67 1017.1
20260831214559 90 190 2.0 7.0 0.00 0.00 0.00 66 1017.2
20260831213105 90 161 3.0 6.0 0.00 0.00 0.00 66 1017.1
20260831211606 90 202 2.0 11.0 0.00 0.00 0.00 64 1017.2
20260831210100 91 0 0.0 10.0 0.00 0.00 0.00 63 1017.3
20260831204559 91 0 0.0 1.0 0.00 0.00 0.00 68 1017.3
20260831203105 91 224 0.0 0.0 0.00 0.00 0.00 67 1017.5
20260831201604 90 0 0.0 0.0 0.00 0.00 0.00 66 1017.9
20260831200100 91 0 0.0 0.0 0.00 0.00 0.00 65 1018.1
20260831194640 91 0 0.0 0.0 0.00 0.00 0.00 66 1018.3
20260831193059 90 0 0.0 7.0 0.00 0.00 0.00 69 1018.5
20260831191608 90 0 0.0 0.0 0.00 0.00 0.00 71 1018.6
20260831190125 89 0 0.0 0.0 0.00 0.00 0.00 74 1018.9
20260831184611 88 0 0.0 9.0 0.00 0.00 0.00 71 1019.0
20260831183101 86 272 7.0 11.0 0.00 0.00 0.00 71 1019.0
20260831181604 88 275 5.0 11.0 0.00 0.00 0.00 72 1019.2
20260831180059 88 286 2.0 15.0 0.00 0.00 0.00 74 1019.3
20260831174631 88 260 4.0 12.0 0.00 0.00 0.00 74 1019.2
20260831173102 87 282 6.0 15.0 0.00 0.00 0.00 76 1019.4
20260831171558 86 192 5.0 12.0 0.00 0.00 0.00 79 1019.6
20260831164601 85 264 1.0 7.0 0.00 0.00 0.00 82 1019.8
20260831163107 85 217 3.0 10.0 0.00 0.00 0.00 81 1019.8
20260831161604 85 279 4.0 10.0 0.00 0.00 0.00 79 1019.8
20260831160104 84 254 5.0 12.0 0.00 0.00 0.00 82 1019.8
20260831154630 83 242 2.0 13.0 0.00 0.00 0.00 85 1019.8
20260831153112 82 257 4.0 10.0 0.00 0.00 0.00 84 1019.8
20260831151607 82 263 1.0 8.0 0.00 0.00 0.00 85 1019.8
20260831150104 81 0 4.0 10.0 0.00 0.00 0.00 84 1019.8
20260831144601 80 244 1.0 9.0 0.00 0.00 0.00 87 1019.6
20260831143058 79 287 0.0 2.0 0.00 0.00 0.00 89 1019.5
20260831141607 78 217 0.0 4.0 0.00 0.00 0.00 88 1019.4
20260831140056 78 0 0.0 3.0 0.00 0.00 0.00 88 1019.3
20260831134613 78 0 0.0 3.0 0.00 0.00 0.00 88 1019.2
20260831133112 77 0 0.0 0.0 0.00 0.00 0.00 88 1019.4
20260831131600 76 132 0.0 2.0 0.00 0.00 0.00 91 1019.4
20260831124611 74 0 0.0 0.0 0.00 0.00 0.00 92 1019.1
20260831123102 71 0 0.0 1.0 0.00 0.00 0.00 95 1019.0
20260831121632 70 0 0.0 1.0 0.00 0.00 0.00 96 1018.8
20260831114603 68 0 0.0 0.0 0.00 0.00 0.00 96 1018.8
20260831113108 68 0 0.0 1.0 0.00 0.00 0.00 96 1018.8
20260831111556 68 0 0.0 1.0 0.00 0.00 0.00 96 1018.8
20260831110101 68 0 0.0 0.0 0.00 0.00 0.00 96 1018.6
20260831104604 68 0 0.0 0.0 0.00 0.00 0.00 96 1018.6
20260831103102 68 0 0.0 0.0 0.00 0.00 0.00 96 1018.4
20260831101601 68 0 0.0 0.0 0.00 0.00 0.00 96 1018.2
20260831100058 68 0 0.0 0.0 0.00 0.00 0.00 96 1018.1
20260831094607 68 0 0.0 0.0 0.00 0.00 0.00 95 1018.2
20260831093152 69 0 0.0 1.0 0.00 0.00 0.00 95 1018.3
20260831091604 69 0 0.0 0.0 0.00 0.00 0.00 95 1018.4
20260831090100 70 0 0.0 1.0 0.00 0.00 0.00 95 1018.4
20260831084651 70 0 0.0 1.0 0.00 0.00 0.00 95 1018.4
20260831083107 70 0 0.0 0.0 0.00 0.00 0.00 94 1018.2
20260831081552 70 0 0.0 0.0 0.00 0.00 0.00 94 1018.0
20260831080122 71 0 0.0 0.0 0.00 0.00 0.00 93 1018.0
20260831074602 71 0 0.0 0.0 0.00 0.00 0.00 93 1017.9
20260831073058 72 0 0.0 1.0 0.00 0.00 0.00 92 1018.0
20260831071612 72 0 0.0 1.0 0.00 0.00 0.00 91 1017.9
20260831070107 73 0 0.0 1.0 0.00 0.00 0.00 89 1017.9
20260831064559 73 0 0.0 4.0 0.00 0.00 0.00 89 1017.7
20260831063111 73 0 0.0 2.0 0.00 0.00 0.00 90 1017.6
20260831061600 72 0 0.0 0.0 0.00 0.00 0.00 92 1017.8
20260831060115 72 0 0.0 0.0 0.00 0.00 0.00 92 1018.4
20260831054556 73 0 0.0 0.0 0.00 0.00 0.00 91 1018.5
20260831053105 73 0 0.0 0.0 0.00 0.00 0.00 91 1018.4
20260831051602 73 0 0.0 0.0 0.00 0.00 0.00 91 1018.5
20260831050112 73 0 0.0 1.0 0.00 0.00 0.00 90 1018.5
20260831044601 73 0 0.0 3.0 0.00 0.00 0.00 90 1018.5
20260831043100 73 0 0.0 2.0 0.00 0.00 0.00 91 1018.0
20260831041559 73 0 0.0 1.0 0.00 0.00 0.00 92 1018.3
20260831040110 73 0 0.0 1.0 0.00 0.00 0.00 92 1018.2
20260831034612 72 0 0.0 1.0 0.00 0.00 0.00 93 1018.3
20260831033102 72 0 0.0 1.0 0.00 0.00 0.00 94 1018.4
20260831031558 71 0 0.0 2.0 0.00 0.00 0.00 95 1018.5
20260831030106 71 0 0.0 1.0 0.00 0.00 0.00 95 1018.5
20260831024602 71 0 0.0 0.0 0.00 0.00 0.00 95 1018.6
20260831023105 71 0 0.0 1.0 0.00 0.00 0.00 95 1018.7
20260831021557 71 0 0.0 0.0 0.00 0.00 0.00 95 1018.6
20260831014618 72 0 0.0 0.0 0.00 0.00 0.00 94 1018.4
20260831013058 72 0 0.0 0.0 0.00 0.00 0.00 94 1018.3
20260831011559 72 0 0.0 0.0 0.00 0.00 0.00 93 1018.3
20260831010107 73 0 0.0 0.0 0.00 0.00 0.00 93 1018.2
20260831004602 74 0 0.0 0.0 0.00 0.00 0.00 92 1018.2
20260831003058 74 0 0.0 0.0 0.00 0.00 0.00 92 1018.2
20260831001625 76 0 0.0 1.0 0.00 0.00 0.00 89 1018.3
20260831000105 77 0 0.0 0.0 0.00 0.00 0.00 89 1018.2
20260830234602 78 0 0.0 0.0 0.00 0.00 0.00 87 1018.2
20260830233118 80 0 0.0 1.0 0.00 0.00 0.00 85 1018.0
20260830231601 82 0 0.0 1.0 0.00 0.00 0.00 82 1018.2